Location: Les Chemineaux
(47.3024°N, 1.5104°E)
Time: 00:43:15
(UTC+00:00)

Cosmos 1238 Rocket - Pass Details

Date: 19 May 2025
Orbit: 356 x 777 km, 82.9° (Epoch: 18 June)

Event Time Altitude Azimuth Distance (km) Brightness Sun altitude
Exits shadow 21:22:38 30° 140° (SE) 907 3.3 -15.0°
Maximum altitude 21:23:52 41° 95° (E) 703 3.0 -15.1°
Drops below altitude 10° 21:27:04 10° 23° (NNE) 1,554 5.5 -15.4°
Sets 21:29:03 0° 16° (NNE) 2,369 6.7 -15.6°
